Skip Page Navigation
NASA JPL Caltech
NASA Logo - Jet Propulsion Laboratory + View the NASA Portal
+ Center for Near-Earth Object Studies
JPL Home Earth Solar System Stars & Galaxies Technology
JPL Solar System Dynamics
BODIES ORBITS EPHEMERIDES TOOLS PHYSICAL DATA DISCOVERY FAQ SITE MAP
IMPORTANT: The SSD Announcement email list is now available. Major changes are coming in the near future, including possible hostname and/or URL changes. To be notified of such changes, subscribe to this email list.

Please visit this page for more details.


JPL Small-Body Database Browser
Search: [ help ]  
376631 (2013 PV67)
Classification: Main-belt Asteroid          SPK-ID: 2376631
Ephemeris | Orbit Diagram | Orbital Elements | Mission Design | Physical Parameters | Discovery Circumstances | Close-Approach Data ]

[ show orbit diagram ]
Orbital Elements at Epoch 2459000.5 (2020-May-31.0) TDB
Reference: JPL 18 (heliocentric ecliptic J2000)
 Element Value Uncertainty (1-sigma)   Units 
e .1412430132170654 7.3577e-08  
a 2.990436784299407 6.0896e-08 au
q 2.568058482049807 2.5315e-07 au
i 20.47169146850953 8.8511e-06 deg
node 333.1834047151991 1.7636e-05 deg
peri 144.9014275611707 4.1837e-05 deg
M 338.2151131477442 3.3052e-05 deg
tp 2459114.801827462116
(2020-Sep-22.30182746)
0.00017237 TDB
period 1888.862593844549
5.17
5.7696e-05
1.58e-07
d
yr
n .1905908884919278 5.8217e-09 deg/d
Q 3.412815086549006 6.9497e-08 au
  Orbit Determination Parameters
   # obs. used (total)      181  
   data-arc span      5935 days (16.25 yr)  
   first obs. used      2003-10-04  
   last obs. used      2020-01-03  
   planetary ephem.      DE431  
   SB-pert. ephem.      SB431-N16  
   condition code      0  
   norm. resid. RMS      .52573  
   source      ORB  
   producer      Otto Matic  
   solution date      2020-Jan-30 09:26:14  

Additional Information
 Earth MOID = 1.6046 au 
 Jupiter MOID = 1.68065 au 
 T_jup = 3.146 
[ show covariance matrix ]

Ephemeris | Orbit Diagram | Orbital Elements | Mission Design | Physical Parameters | Discovery Circumstances | Close-Approach Data ]

Physical Parameter Table
Parameter Symbol Value Units Sigma Reference Notes
absolute magnitude H 15.7   n/a MPO455715  
diameter diameter 3.893 km 0.107 urn:nasa:pds:neowise_diameters_albedos::2.0[mainbelt] (http://adsabs.harvard.edu/abs/2011ApJ...741...68M)  

376631 (2013 PV67)          Discovered 2008-Jul-29 by Mt. Lemmon Survey at Mount Lemmon
Reference: Last Updated: 2013-10-21

[ show close-approach data ]
Alternate Designations
 2013 PV67 = 2010 EE4 
Ephemeris | Orbit Diagram | Orbital Elements | Mission Design | Physical Parameters | Discovery Circumstances | Close-Approach Data ]
ABOUT SSD CREDITS/AWARDS PRIVACY/COPYRIGHT GLOSSARY LINKS
FirstGov 2020-Feb-29 14:04 UT
(server date/time)  
NASA Home Page
Site Manager:   Ryan S. Park
Webmaster  Alan B. Chamberlin